Location: Zagreb
(45.8000°N, 16.0000°E)
Time: 16:20:04
(UTC+01:00)

Tiros 1 despin weight - Pass Details

Date: 31 January 2020
Orbit: 594 x 642 km, 48.2° (Epoch: 25 February)

Event Time Altitude Azimuth Distance (km) Brightness Sun altitude
Rises 08:55:23 0° 226° (SW) 2,829 ? 13.0°
Reaches altitude 10° 08:57:44 10° 220° (SW) 1,935 ? 13.3°
Maximum altitude 09:01:56 43° 148° (SSE) 853 ? 13.8°
Drops below altitude 10° 09:06:13 10° 77° (ENE) 1,969 ? 14.4°
Sets 09:08:37 0° 71° (ENE) 2,885 ? 14.7°
